"Sample Date","Sample Time","Sensor Name","Sample Value","Units","Flow Rate","Sample Interval","Sample Volume","Laser Status","Number Channels","Micron Size 0","Counts/Channel 0","Micron Size 1","Counts/Channel 1","Micron Size 2","Counts/Channel 2","Micron Size 3","Counts/Channel 3","Micron Size 4","Counts/Channel 4","Micron Size 5","Counts/Channel 5","Micron Size 6","Counts/Channel 6","Micron Size 7","Counts/Channel 7","Micron Size 8","Counts/Channel 8","Micron Size 9","Counts/Channel 9","Micron Size 10","Counts/Channel 10","Micron Size 11","Counts/Channel 11","Micron Size 12","Counts/Channel 12","Micron Size 13","Counts/Channel 13","Micron Size 14","Counts/Channel 14","Micron Size 15","Counts/Channel 15","Micron Size 16","Counts/Channel 16","Micron Size 17","Counts/Channel 17","Micron Size 18","Counts/Channel 18","Micron Size 19","Counts/Channel 19","Micron Size 20","Counts/Channel 20","Micron Size 21","Counts/Channel 21","Micron Size 22","Counts/Channel 22","Micron Size 23","Counts/Channel 23","Micron Size 24","Counts/Channel 24","Micron Size 25","Counts/Channel 25","Micron Size 26","Counts/Channel 26","Micron Size 27","Counts/Channel 27","Micron Size 28","Counts/Channel 28","Micron Size 29","Counts/Channel 29","Micron Size 30","Counts/Channel 30","Micron Size 31","Counts/Channel 31"
"07/11/06","17:00:02","AMMA06",78494.000,"cc",28325.279,6.00,2832.528,1,6,0.100,41890.000,0.200,30204.000,0.300,5328.000,0.500,732.000,1.000,340.000,5.000,0
"07/11/06","17:00:08","AMMA06",79703.000,"cc",28326.695,6.00,2832.670,1,6,0.100,42496.000,0.200,30437.000,0.300,5538.000,0.500,807.000,1.000,425.000,5.000,0
"07/11/06","17:00:14","AMMA06",78619.000,"cc",28302.438,6.00,2830.244,1,6,0.100,42452.000,0.200,29991.000,0.300,5208.000,0.500,642.000,1.000,326.000,5.000,0
"07/11/06","17:00:20","AMMA06",77572.000,"cc",28290.260,6.00,2829.026,1,6,0.100,41662.000,0.200,30057.000,0.300,5107.000,0.500,496.000,1.000,249.000,5.000,1.000
"07/11/06","17:00:26","AMMA06",76287.000,"cc",28315.580,6.00,2831.558,1,6,0.100,40648.000,0.200,30056.000,0.300,4914.000,0.500,450.000,1.000,219.000,5.000,0
"07/11/06","17:00:32","AMMA06",79064.000,"cc",28364.379,6.00,2836.438,1,6,0.100,41821.000,0.200,30360.000,0.300,5700.000,0.500,804.000,1.000,379.000,5.000,0
"07/11/06","17:00:38","AMMA06",78618.000,"cc",28327.918,6.00,2832.792,1,6,0.100,41562.000,0.200,30370.000,0.300,5609.000,0.500,763.000,1.000,314.000,5.000,0
"07/11/06","17:00:44","AMMA06",83675.000,"cc",28340.029,6.00,2834.003,1,6,0.100,43095.000,0.200,31676.000,0.300,6794.000,0.500,1440.000,1.000,670.000,5.000,0
"07/11/06","17:00:50","AMMA06",83365.000,"cc",28338.354,6.00,2833.835,1,6,0.100,42858.000,0.200,31697.000,0.300,6725.000,0.500,1361.000,1.000,724.000,5.000,0
"07/11/06","17:00:56","AMMA06",79386.000,"cc",28299.342,6.00,2829.934,1,6,0.100,41242.000,0.200,30919.000,0.300,5891.000,0.500,864.000,1.000,470.000,5.000,0
"07/11/06","17:01:02","AMMA06",78926.000,"cc",28328.158,6.00,2832.816,1,6,0.100,41179.000,0.200,31109.000,0.300,5529.000,0.500,714.000,1.000,395.000,5.000,0
"07/11/06","17:01:08","AMMA06",78708.000,"cc",28280.531,6.00,2828.053,1,6,0.100,41230.000,0.200,30766.000,0.300,5639.000,0.500,730.000,1.000,343.000,5.000,0
"07/11/06","17:01:14","AMMA06",80108.000,"cc",28289.066,6.00,2828.907,1,6,0.100,41017.000,0.200,31745.000,0.300,5933.000,0.500,938.000,1.000,475.000,5.000,0
"07/11/06","17:01:20","AMMA06",86234.000,"cc",28311.762,6.00,2831.176,1,6,0.100,43429.000,0.200,32821.000,0.300,7470.000,0.500,1698.000,1.000,816.000,5.000,0
"07/11/06","17:01:26","AMMA06",85066.000,"cc",28321.910,6.00,2832.191,1,6,0.100,42745.000,0.200,32944.000,0.300,7110.000,0.500,1480.000,1.000,787.000,5.000,0
"07/11/06","17:01:32","AMMA06",81000.000,"cc",28344.742,6.00,2834.474,1,6,0.100,41218.000,0.200,31840.000,0.300,6300.000,0.500,1091.000,1.000,551.000,5.000,0
"07/11/06","17:01:38","AMMA06",79200.000,"cc",28286.166,6.00,2828.617,1,6,0.100,40449.000,0.200,31954.000,0.300,5754.000,0.500,687.000,1.000,356.000,5.000,0
"07/11/06","17:01:44","AMMA06",87750.000,"cc",28314.545,6.00,2831.455,1,6,0.100,42898.000,0.200,33578.000,0.300,8121.000,0.500,2036.000,1.000,1116.000,5.000,1.000
"07/11/06","17:01:50","AMMA06",80668.000,"cc",28319.106,6.00,2831.911,1,6,0.100,40777.000,0.200,32445.000,0.300,6097.000,0.500,903.000,1.000,446.000,5.000,0
"07/11/06","17:01:56","AMMA06",79774.000,"cc",28277.027,6.00,2827.703,1,6,0.100,40420.000,0.200,32178.000,0.300,5838.000,0.500,903.000,1.000,435.000,5.000,0
"07/11/06","17:02:02","AMMA06",79501.000,"cc",28360.027,6.00,2836.003,1,6,0.100,40268.000,0.200,31935.000,0.300,6044.000,0.500,794.000,1.000,460.000,5.000,0
"07/11/06","17:02:08","AMMA06",78851.000,"cc",28342.117,6.00,2834.212,1,6,0.100,40123.000,0.200,31763.000,0.300,5835.000,0.500,745.000,1.000,385.000,5.000,0
"07/11/06","17:02:14","AMMA06",80936.000,"cc",28314.207,6.00,2831.421,1,6,0.100,40670.000,0.200,32474.000,0.300,6265.000,0.500,980.000,1.000,546.000,5.000,1.000
"07/11/06","17:02:20","AMMA06",78534.000,"cc",28337.242,6.00,2833.724,1,6,0.100,39925.000,0.200,32112.000,0.300,5584.000,0.500,610.000,1.000,303.000,5.000,0
"07/11/06","17:02:26","AMMA06",81375.000,"cc",28303.559,6.00,2830.356,1,6,0.100,41201.000,0.200,32135.000,0.300,6425.000,0.500,1065.000,1.000,549.000,5.000,0
"07/11/06","17:02:32","AMMA06",80155.000,"cc",28291.641,6.00,2829.164,1,6,0.100,40940.000,0.200,32130.000,0.300,5834.000,0.500,849.000,1.000,402.000,5.000,0
"07/11/06","17:02:38","AMMA06",77478.000,"cc",28304.281,6.00,2830.428,1,6,0.100,40237.000,0.200,31421.000,0.300,5213.000,0.500,421.000,1.000,186.000,5.000,0
"07/11/06","17:02:44","AMMA06",77760.000,"cc",28314.488,6.00,2831.449,1,6,0.100,40012.000,0.200,31607.000,0.300,5321.000,0.500,550.000,1.000,269.000,5.000,1.000
"07/11/06","17:02:50","AMMA06",78035.000,"cc",28362.320,6.00,2836.232,1,6,0.100,40506.000,0.200,31158.000,0.300,5497.000,0.500,572.000,1.000,302.000,5.000,0
"07/11/06","17:02:56","AMMA06",79805.000,"cc",28293.764,6.00,2829.377,1,6,0.100,41585.000,0.200,31146.000,0.300,5767.000,0.500,868.000,1.000,439.000,5.000,0
"07/11/06","17:03:02","AMMA06",78428.000,"cc",28314.869,6.00,2831.487,1,6,0.100,41212.000,0.200,30815.000,0.300,5351.000,0.500,688.000,1.000,362.000,5.000,0
"07/11/06","17:03:08","AMMA06",79040.000,"cc",28386.609,6.00,2838.661,1,6,0.100,41790.000,0.200,30664.000,0.300,5423.000,0.500,744.000,1.000,419.000,5.000,0
"07/11/06","17:03:14","AMMA06",78670.000,"cc",28294.043,6.00,2829.405,1,6,0.100,41840.000,0.200,30496.000,0.300,5360.000,0.500,658.000,1.000,316.000,5.000,0
"07/11/06","17:03:20","AMMA06",79577.000,"cc",28306.781,6.00,2830.678,1,6,0.100,41994.000,0.200,30731.000,0.300,5563.000,0.500,868.000,1.000,421.000,5.000,0
"07/11/06","17:03:26","AMMA06",79429.000,"cc",28310.440,6.00,2831.044,1,6,0.100,42388.000,0.200,30357.000,0.300,5563.000,0.500,781.000,1.000,340.000,5.000,0
"07/11/06","17:03:32","AMMA06",80145.000,"cc",28320.904,6.00,2832.091,1,6,0.100,42455.000,0.200,30688.000,0.300,5652.000,0.500,938.000,1.000,412.000,5.000,0
"07/11/06","17:03:38","AMMA06",79783.000,"cc",28299.852,6.00,2829.985,1,6,0.100,42941.000,0.200,30329.000,0.300,5457.000,0.500,695.000,1.000,361.000,5.000,0
"07/11/06","17:03:44","AMMA06",77632.000,"cc",28327.045,6.00,2832.705,1,6,0.100,41475.000,0.200,30223.000,0.300,5081.000,0.500,569.000,1.000,284.000,5.000,0
"07/11/06","17:03:50","AMMA06",78419.000,"cc",28277.217,6.00,2827.722,1,6,0.100,41936.000,0.200,30178.000,0.300,5338.000,0.500,680.000,1.000,287.000,5.000,0
"07/11/06","17:03:56","AMMA06",77530.000,"cc",28343.951,6.00,2834.395,1,6,0.100,41632.000,0.200,29858.000,0.300,5158.000,0.500,567.000,1.000,315.000,5.000,0
"07/11/06","17:04:02","AMMA06",78469.000,"cc",28291.986,6.00,2829.199,1,6,0.100,42116.000,0.200,30052.000,0.300,5206.000,0.500,745.000,1.000,350.000,5.000,0
"07/11/06","17:04:08","AMMA06",77786.000,"cc",28349.106,6.00,2834.911,1,6,0.100,42088.000,0.200,29535.000,0.300,5232.000,0.500,636.000,1.000,295.000,5.000,0
"07/11/06","17:04:14","AMMA06",77348.000,"cc",28278.213,6.00,2827.822,1,6,0.100,41887.000,0.200,29853.000,0.300,4889.000,0.500,479.000,1.000,240.000,5.000,0
"07/11/06","17:04:20","AMMA06",77296.000,"cc",28301.674,6.00,2830.168,1,6,0.100,42090.000,0.200,29580.000,0.300,4873.000,0.500,514.000,1.000,239.000,5.000,0
"07/11/06","17:04:26","AMMA06",78684.000,"cc",28320.436,6.00,2832.044,1,6,0.100,42849.000,0.200,29632.000,0.300,5121.000,0.500,734.000,1.000,348.000,5.000,0
"07/11/06","17:04:32","AMMA06",83071.000,"cc",28281.484,6.00,2828.149,1,6,0.100,43969.000,0.200,30866.000,0.300,6282.000,0.500,1329.000,1.000,625.000,5.000,0
"07/11/06","17:04:38","AMMA06",84670.000,"cc",28337.195,6.00,2833.720,1,6,0.100,45038.000,0.200,30720.000,0.300,6615.000,0.500,1526.000,1.000,771.000,5.000,0
"07/11/06","17:04:44","AMMA06",79420.000,"cc",28342.670,6.00,2834.267,1,6,0.100,43775.000,0.200,29671.000,0.300,5023.000,0.500,654.000,1.000,297.000,5.000,0
"07/11/06","17:04:50","AMMA06",78245.000,"cc",28315.455,6.00,2831.546,1,6,0.100,43036.000,0.200,29325.000,0.300,4947.000,0.500,653.000,1.000,284.000,5.000,0
"07/11/06","17:04:56","AMMA06",77750.000,"cc",28311.522,6.00,2831.152,1,6,0.100,43038.000,0.200,28989.000,0.300,4855.000,0.500,586.000,1.000,282.000,5.000,0
"07/11/06","17:05:02","AMMA06",82185.000,"cc",28287.555,6.00,2828.756,1,6,0.100,44040.000,0.200,30094.000,0.300,6094.000,0.500,1294.000,1.000,663.000,5.000,0
"07/11/06","17:05:08","AMMA06",79481.000,"cc",28322.055,6.00,2832.206,1,6,0.100,43430.000,0.200,29632.000,0.300,5266.000,0.500,805.000,1.000,348.000,5.000,0
"07/11/06","17:05:14","AMMA06",79565.000,"cc",28333.897,6.00,2833.390,1,6,0.100,43240.000,0.200,29778.000,0.300,5296.000,0.500,850.000,1.000,401.000,5.000,0
"07/11/06","17:05:20","AMMA06",78930.000,"cc",28354.666,6.00,2835.467,1,6,0.100,43087.000,0.200,29769.000,0.300,5104.000,0.500,652.000,1.000,318.000,5.000,0
"07/11/06","17:05:26","AMMA06",80683.000,"cc",28288.027,6.00,2828.803,1,6,0.100,44636.000,0.200,29859.000,0.300,5233.000,0.500,638.000,1.000,317.000,5.000,0
"07/11/06","17:05:32","AMMA06",76457.000,"cc",28288.074,6.00,2828.808,1,6,0.100,41679.000,0.200,29391.000,0.300,4774.000,0.500,402.000,1.000,211.000,5.000,0
"07/11/06","17:05:38","AMMA06",78849.000,"cc",28294.393,6.00,2829.440,1,6,0.100,42751.000,0.200,30006.000,0.300,5161.000,0.500,644.000,1.000,287.000,5.000,0
"07/11/06","17:05:44","AMMA06",77592.000,"cc",28321.709,6.00,2832.171,1,6,0.100,41539.000,0.200,29901.000,0.300,5292.000,0.500,567.000,1.000,293.000,5.000,0
"07/11/06","17:05:50","AMMA06",78712.000,"cc",28359.617,6.00,2835.962,1,6,0.100,41865.000,0.200,30360.000,0.300,5430.000,0.500,723.000,1.000,334.000,5.000,0
"07/11/06","17:05:56","AMMA06",78365.000,"cc",28335.000,6.00,2833.500,1,6,0.100,41663.000,0.200,30502.000,0.300,5273.000,0.500,630.000,1.000,297.000,5.000,0
"07/11/06","17:06:02","AMMA06",77958.000,"cc",28321.902,6.00,2832.190,1,6,0.100,41774.000,0.200,30338.000,0.300,5087.000,0.500,502.000,1.000,256.000,5.000,1.000
"07/11/06","17:06:08","AMMA06",80582.000,"cc",28312.436,6.00,2831.244,1,6,0.100,43242.000,0.200,30649.000,0.300,5546.000,0.500,771.000,1.000,373.000,5.000,1.000
"07/11/06","17:06:14","AMMA06",79702.000,"cc",28325.010,6.00,2832.501,1,6,0.100,41907.000,0.200,31080.000,0.300,5538.000,0.500,791.000,1.000,386.000,5.000,0
"07/11/06","17:06:20","AMMA06",79471.000,"cc",28309.594,6.00,2830.960,1,6,0.100,42021.000,0.200,30740.000,0.300,5539.000,0.500,774.000,1.000,397.000,5.000,0
"07/11/06","17:06:26","AMMA06",77126.000,"cc",28291.639,6.00,2829.164,1,6,0.100,41037.000,0.200,30478.000,0.300,4943.000,0.500,474.000,1.000,194.000,5.000,0
"07/11/06","17:06:32","AMMA06",77740.000,"cc",28306.182,6.00,2830.618,1,6,0.100,40952.000,0.200,30538.000,0.300,5386.000,0.500,603.000,1.000,261.000,5.000,0
"07/11/06","17:06:38","AMMA06",79366.000,"cc",28349.072,6.00,2834.908,1,6,0.100,41197.000,0.200,31252.000,0.300,5781.000,0.500,752.000,1.000,384.000,5.000,0
"07/11/06","17:06:44","AMMA06",81852.000,"cc",28306.705,6.00,2830.671,1,6,0.100,41765.000,0.200,31798.000,0.300,6457.000,0.500,1197.000,1.000,635.000,5.000,0
"07/11/06","17:06:50","AMMA06",79680.000,"cc",28304.652,6.00,2830.465,1,6,0.100,41339.000,0.200,31071.000,0.300,5965.000,0.500,864.000,1.000,441.000,5.000,0
"07/11/06","17:06:56","AMMA06",78570.000,"cc",28308.545,6.00,2830.855,1,6,0.100,40774.000,0.200,31466.000,0.300,5423.000,0.500,611.000,1.000,296.000,5.000,0
"07/11/06","17:07:02","AMMA06",79610.000,"cc",28309.000,6.00,2830.900,1,6,0.100,41180.000,0.200,31513.000,0.300,5715.000,0.500,794.000,1.000,408.000,5.000,0
"07/11/06","17:07:08","AMMA06",79904.000,"cc",28330.377,6.00,2833.038,1,6,0.100,41375.000,0.200,31418.000,0.300,5891.000,0.500,818.000,1.000,402.000,5.000,0
"07/11/06","17:07:14","AMMA06",79899.000,"cc",28322.088,6.00,2832.209,1,6,0.100,41521.000,0.200,31442.000,0.300,5770.000,0.500,800.000,1.000,366.000,5.000,0
"07/11/06","17:07:20","AMMA06",79389.000,"cc",28337.147,6.00,2833.715,1,6,0.100,41260.000,0.200,31359.000,0.300,5700.000,0.500,728.000,1.000,342.000,5.000,0
"07/11/06","17:07:26","AMMA06",77574.000,"cc",28326.059,6.00,2832.606,1,6,0.100,40610.000,0.200,30794.000,0.300,5403.000,0.500,527.000,1.000,240.000,5.000,0
"07/11/06","17:07:32","AMMA06",77403.000,"cc",28280.541,6.00,2828.054,1,6,0.100,40636.000,0.200,31200.000,0.300,5008.000,0.500,385.000,1.000,174.000,5.000,0
"07/11/06","17:07:38","AMMA06",76951.000,"cc",28303.871,6.00,2830.387,1,6,0.100,40272.000,0.200,31026.000,0.300,5059.000,0.500,401.000,1.000,193.000,5.000,0
"07/11/06","17:07:44","AMMA06",78353.000,"cc",28350.990,6.00,2835.099,1,6,0.100,40891.000,0.200,31116.000,0.300,5412.000,0.500,634.000,1.000,300.000,5.000,0
"07/11/06","17:07:50","AMMA06",78235.000,"cc",28293.965,6.00,2829.397,1,6,0.100,41135.000,0.200,31120.000,0.300,5129.000,0.500,564.000,1.000,287.000,5.000,0
"07/11/06","17:07:56","AMMA06",80198.000,"cc",28277.301,6.00,2827.730,1,6,0.100,42297.000,0.200,30864.000,0.300,5787.000,0.500,841.000,1.000,407.000,5.000,2.000
"07/11/06","17:08:02","AMMA06",78337.000,"cc",28355.740,6.00,2835.574,1,6,0.100,41291.000,0.200,30943.000,0.300,5264.000,0.500,588.000,1.000,251.000,5.000,0
"07/11/06","17:08:08","AMMA06",77271.000,"cc",28338.883,6.00,2833.888,1,6,0.100,41180.000,0.200,30617.000,0.300,4861.000,0.500,414.000,1.000,198.000,5.000,1.000
"07/11/06","17:08:14","AMMA06",77619.000,"cc",28315.086,6.00,2831.509,1,6,0.100,41507.000,0.200,30483.000,0.300,4908.000,0.500,476.000,1.000,245.000,5.000,0
"07/11/06","17:08:20","AMMA06",86978.000,"cc",28266.842,6.00,2826.684,1,6,0.100,44671.000,0.200,32327.000,0.300,7377.000,0.500,1811.000,1.000,792.000,5.000,0
"07/11/06","17:08:26","AMMA06",77876.000,"cc",28330.398,6.00,2833.040,1,6,0.100,41887.000,0.200,30198.000,0.300,5019.000,0.500,517.000,1.000,255.000,5.000,0
"07/11/06","17:08:32","AMMA06",77956.000,"cc",28311.322,6.00,2831.132,1,6,0.100,41919.000,0.200,30195.000,0.300,5089.000,0.500,529.000,1.000,224.000,5.000,0
"07/11/06","17:08:38","AMMA06",76981.000,"cc",28308.072,6.00,2830.807,1,6,0.100,41739.000,0.200,29689.000,0.300,4886.000,0.500,449.000,1.000,218.000,5.000,0
"07/11/06","17:08:44","AMMA06",77781.000,"cc",28368.178,6.00,2836.818,1,6,0.100,41772.000,0.200,29970.000,0.300,5139.000,0.500,599.000,1.000,301.000,5.000,0
"07/11/06","17:08:50","AMMA06",78562.000,"cc",28329.129,6.00,2832.913,1,6,0.100,42305.000,0.200,30032.000,0.300,5199.000,0.500,704.000,1.000,322.000,5.000,0
"07/11/06","17:08:56","AMMA06",81695.000,"cc",28312.273,6.00,2831.228,1,6,0.100,44128.000,0.200,30392.000,0.300,5736.000,0.500,953.000,1.000,486.000,5.000,0
"07/11/06","17:09:02","AMMA06",79742.000,"cc",28326.117,6.00,2832.612,1,6,0.100,43621.000,0.200,29956.000,0.300,5116.000,0.500,703.000,1.000,346.000,5.000,0
"07/11/06","17:09:08","AMMA06",78551.000,"cc",28338.191,6.00,2833.819,1,6,0.100,42459.000,0.200,29913.000,0.300,5142.000,0.500,713.000,1.000,324.000,5.000,0
"07/11/06","17:09:14","AMMA06",77279.000,"cc",28306.397,6.00,2830.640,1,6,0.100,42221.000,0.200,29643.000,0.300,4751.000,0.500,459.000,1.000,205.000,5.000,0
"07/11/06","17:09:20","AMMA06",79079.000,"cc",28279.717,6.00,2827.972,1,6,0.100,42820.000,0.200,29666.000,0.300,5381.000,0.500,862.000,1.000,350.000,5.000,0
"07/11/06","17:09:26","AMMA06",82959.000,"cc",28252.660,6.00,2825.266,1,6,0.100,44398.000,0.200,30495.000,0.300,6225.000,0.500,1277.000,1.000,564.000,5.000,0
"07/11/06","17:09:32","AMMA06",80573.000,"cc",28314.588,6.00,2831.459,1,6,0.100,43756.000,0.200,30107.000,0.300,5492.000,0.500,787.000,1.000,431.000,5.000,0
"07/11/06","17:09:38","AMMA06",78158.000,"cc",28336.231,6.00,2833.623,1,6,0.100,42751.000,0.200,29443.000,0.300,5111.000,0.500,591.000,1.000,262.000,5.000,0
"07/11/06","17:09:44","AMMA06",80544.000,"cc",28324.568,6.00,2832.457,1,6,0.100,44333.000,0.200,29763.000,0.300,5355.000,0.500,741.000,1.000,352.000,5.000,0
"07/11/06","17:09:50","AMMA06",82512.000,"cc",28271.231,6.00,2827.123,1,6,0.100,45662.000,0.200,30033.000,0.300,5599.000,0.500,833.000,1.000,385.000,5.000,0
"07/11/06","17:09:56","AMMA06",82434.000,"cc",28348.613,6.00,2834.862,1,6,0.100,44453.000,0.200,30266.000,0.300,6018.000,0.500,1169.000,1.000,527.000,5.000,1.000
"07/11/06","17:10:02","AMMA06",78087.000,"cc",28301.061,6.00,2830.106,1,6,0.100,42970.000,0.200,29525.000,0.300,4793.000,0.500,527.000,1.000,272.000,5.000,0
"07/11/06","17:10:08","AMMA06",81443.000,"cc",28357.283,6.00,2835.729,1,6,0.100,44596.000,0.200,29790.000,0.300,5613.000,0.500,1001.000,1.000,443.000,5.000,0
"07/11/06","17:10:14","AMMA06",80826.000,"cc",28292.250,6.00,2829.225,1,6,0.100,43789.000,0.200,29932.000,0.300,5639.000,0.500,984.000,1.000,482.000,5.000,0
"07/11/06","17:10:20","AMMA06",83338.000,"cc",28276.275,6.00,2827.628,1,6,0.100,45454.000,0.200,30238.000,0.300,5911.000,0.500,1167.000,1.000,568.000,5.000,0
"07/11/06","17:10:26","AMMA06",81426.000,"cc",28327.641,6.00,2832.764,1,6,0.100,44397.000,0.200,30069.000,0.300,5545.000,0.500,966.000,1.000,449.000,5.000,0
"07/11/06","17:10:32","AMMA06",78849.000,"cc",28367.949,6.00,2836.795,1,6,0.100,43178.000,0.200,29577.000,0.300,5169.000,0.500,614.000,1.000,311.000,5.000,0
"07/11/06","17:10:38","AMMA06",82729.000,"cc",28281.465,6.00,2828.147,1,6,0.100,44096.000,0.200,30630.000,0.300,6167.000,0.500,1239.000,1.000,597.000,5.000,0
"07/11/06","17:10:44","AMMA06",81830.000,"cc",28310.166,6.00,2831.017,1,6,0.100,44017.000,0.200,30473.000,0.300,5836.000,0.500,1015.000,1.000,489.000,5.000,0
"07/11/06","17:10:50","AMMA06",81393.000,"cc",28340.811,6.00,2834.081,1,6,0.100,43188.000,0.200,30627.000,0.300,5939.000,0.500,1113.000,1.000,526.000,5.000,0
"07/11/06","17:10:56","AMMA06",78663.000,"cc",28340.732,6.00,2834.074,1,6,0.100,42182.000,0.200,30271.000,0.300,5235.000,0.500,683.000,1.000,292.000,5.000,0
"07/11/06","17:11:02","AMMA06",79618.000,"cc",28297.379,6.00,2829.738,1,6,0.100,42907.000,0.200,29862.000,0.300,5596.000,0.500,846.000,1.000,407.000,5.000,0
"07/11/06","17:11:08","AMMA06",78791.000,"cc",28332.416,6.00,2833.242,1,6,0.100,42343.000,0.200,30332.000,0.300,5160.000,0.500,644.000,1.000,312.000,5.000,0
"07/11/06","17:11:14","AMMA06",79432.000,"cc",28331.670,6.00,2833.167,1,6,0.100,41882.000,0.200,30991.000,0.300,5461.000,0.500,726.000,1.000,372.000,5.000,0
"07/11/06","17:11:20","AMMA06",79468.000,"cc",28338.199,6.00,2833.820,1,6,0.100,41685.000,0.200,30863.000,0.300,5610.000,0.500,877.000,1.000,433.000,5.000,0
"07/11/06","17:11:26","AMMA06",81467.000,"cc",28321.871,6.00,2832.187,1,6,0.100,43352.000,0.200,30818.000,0.300,5895.000,0.500,963.000,1.000,439.000,5.000,0
"07/11/06","17:11:32","AMMA06",81445.000,"cc",28289.041,6.00,2828.904,1,6,0.100,42871.000,0.200,31462.000,0.300,5743.000,0.500,907.000,1.000,462.000,5.000,0
"07/11/06","17:11:38","AMMA06",82846.000,"cc",28317.535,6.00,2831.754,1,6,0.100,43901.000,0.200,31451.000,0.300,5955.000,0.500,1034.000,1.000,505.000,5.000,0
"07/11/06","17:11:44","AMMA06",87227.000,"cc",28340.719,6.00,2834.072,1,6,0.100,47346.000,0.200,32251.000,0.300,6088.000,0.500,1031.000,1.000,511.000,5.000,0
"07/11/06","17:11:50","AMMA06",82493.000,"cc",28319.705,6.00,2831.971,1,6,0.100,44329.000,0.200,31613.000,0.300,5572.000,0.500,683.000,1.000,296.000,5.000,0
"07/11/06","17:11:56","AMMA06",79972.000,"cc",28311.580,6.00,2831.158,1,6,0.100,42293.000,0.200,31237.000,0.300,5470.000,0.500,634.000,1.000,338.000,5.000,0
"07/11/06","17:12:02","AMMA06",82263.000,"cc",28285.424,6.00,2828.543,1,6,0.100,43096.000,0.200,31933.000,0.300,5825.000,0.500,959.000,1.000,450.000,5.000,0
"07/11/06","17:12:08","AMMA06",81879.000,"cc",28367.924,6.00,2836.793,1,6,0.100,42994.000,0.200,31725.000,0.300,5861.000,0.500,872.000,1.000,427.000,5.000,0
"07/11/06","17:12:14","AMMA06",81582.000,"cc",28362.992,6.00,2836.299,1,6,0.100,43606.000,0.200,31369.000,0.300,5604.000,0.500,682.000,1.000,321.000,5.000,0
"07/11/06","17:12:20","AMMA06",79107.000,"cc",28280.545,6.00,2828.055,1,6,0.100,41510.000,0.200,31418.000,0.300,5297.000,0.500,583.000,1.000,299.000,5.000,0
"07/11/06","17:12:26","AMMA06",79596.000,"cc",28286.404,6.00,2828.641,1,6,0.100,41319.000,0.200,31354.000,0.300,5692.000,0.500,801.000,1.000,430.000,5.000,0
"07/11/06","17:12:32","AMMA06",79759.000,"cc",28335.586,6.00,2833.559,1,6,0.100,41713.000,0.200,30973.000,0.300,5761.000,0.500,876.000,1.000,436.000,5.000,0
"07/11/06","17:12:38","AMMA06",80018.000,"cc",28294.430,6.00,2829.443,1,6,0.100,41964.000,0.200,31183.000,0.300,5630.000,0.500,809.000,1.000,432.000,5.000,0
"07/11/06","17:12:44","AMMA06",78644.000,"cc",28363.445,6.00,2836.345,1,6,0.100,41510.000,0.200,30996.000,0.300,5294.000,0.500,575.000,1.000,269.000,5.000,0
"07/11/06","17:12:50","AMMA06",81961.000,"cc",28320.690,6.00,2832.069,1,6,0.100,44173.000,0.200,31118.000,0.300,5501.000,0.500,762.000,1.000,406.000,5.000,1.000
"07/11/06","17:12:56","AMMA06",79012.000,"cc",28301.109,6.00,2830.111,1,6,0.100,42072.000,0.200,30860.000,0.300,5209.000,0.500,597.000,1.000,274.000,5.000,0
"07/11/06","17:13:02","AMMA06",78990.000,"cc",28305.996,6.00,2830.600,1,6,0.100,42136.000,0.200,30485.000,0.300,5319.000,0.500,711.000,1.000,339.000,5.000,0
"07/11/06","17:13:08","AMMA06",78797.000,"cc",28294.209,6.00,2829.421,1,6,0.100,42078.000,0.200,30347.000,0.300,5303.000,0.500,732.000,1.000,337.000,5.000,0
"07/11/06","17:13:14","AMMA06",79978.000,"cc",28335.318,6.00,2833.532,1,6,0.100,42984.000,0.200,30415.000,0.300,5413.000,0.500,772.000,1.000,394.000,5.000,0
"07/11/06","17:13:20","AMMA06",82684.000,"cc",28298.043,6.00,2829.804,1,6,0.100,43964.000,0.200,30681.000,0.300,6102.000,0.500,1314.000,1.000,623.000,5.000,0
"07/11/06","17:13:26","AMMA06",82344.000,"cc",28323.471,6.00,2832.347,1,6,0.100,43370.000,0.200,31071.000,0.300,6127.000,0.500,1244.000,1.000,532.000,5.000,0
"07/11/06","17:13:32","AMMA06",80283.000,"cc",28316.400,6.00,2831.640,1,6,0.100,43401.000,0.200,30251.000,0.300,5481.000,0.500,784.000,1.000,366.000,5.000,0
"07/11/06","17:13:38","AMMA06",79057.000,"cc",28349.965,6.00,2834.997,1,6,0.100,42652.000,0.200,30224.000,0.300,5309.000,0.500,606.000,1.000,266.000,5.000,0
"07/11/06","17:13:44","AMMA06",79284.000,"cc",28318.359,6.00,2831.836,1,6,0.100,42803.000,0.200,30382.000,0.300,5262.000,0.500,560.000,1.000,276.000,5.000,1.000
"07/11/06","17:13:50","AMMA06",78621.000,"cc",28308.150,6.00,2830.815,1,6,0.100,42532.000,0.200,30059.000,0.300,5175.000,0.500,581.000,1.000,274.000,5.000,0
"07/11/06","17:13:56","AMMA06",81163.000,"cc",28304.010,6.00,2830.401,1,6,0.100,43495.000,0.200,30565.000,0.300,5636.000,0.500,1012.000,1.000,455.000,5.000,0
"07/11/06","17:14:02","AMMA06",80242.000,"cc",28291.107,6.00,2829.111,1,6,0.100,43496.000,0.200,30407.000,0.300,5221.000,0.500,776.000,1.000,342.000,5.000,0
"07/11/06","17:14:08","AMMA06",77615.000,"cc",28299.117,6.00,2829.912,1,6,0.100,42263.000,0.200,29832.000,0.300,4888.000,0.500,433.000,1.000,199.000,5.000,0
"07/11/06","17:14:14","AMMA06",76680.000,"cc",28328.191,6.00,2832.819,1,6,0.100,41690.000,0.200,29750.000,0.300,4634.000,0.500,411.000,1.000,195.000,5.000,0